SCP
0 0 0 0 0 0 0 -0 0 0 0 0 0 0 0 1 1 1 1 1 1 1 1 1 1 2 2 1 1 1 1 1 1 0 0 0 0 0 0 0 0 0 0 0
0 0 0 0 0 0 0 0 0 0 0 0 0 0 0 0 1 1 1 1 1 1 1 1 2 2 2 1 1 1 1 1 1 0 0 0 0 0 0 0 0 0 0 0
0 0 0 0 0 0 0 0 0 0 0 0 0 0 0 0 0 1 1 1 1 1 1 1 2 2 2 2 1 1 1 1 1 0 0 0 0 0 0 0 0 0 0 0
0 0 0 0 0 0 0 0 0 0 0 0 0 0 0 0 0 1 1 1 1 1 1 1 1 1 1 2 1 1 1 1 1 1 0 0 0 0 0 0 0 0 0 0
0 0 0 0 0 0 0 0 0 0 0 0 0 0 0 0 0 1 1 1 1 1 1 1 1 1 1 2 1 1 1 1 1 1 0 0 0 0 0 0 0 0 0 0
0 0 0 0 0 0 0 0 0 0 0 0 0 0 0 0 0 0 1 1 1 1 1 1 1 1 1 1 1 1 1 1 1 1 1 0 0 0 0 0 0 0 0 0
0 0 0 0 0 0 0 0 0 0 0 0 0 0 0 0 0 0 1 1 1 1 1 1 1 1 1 1 1 1 1 1 1 1 1 0 0 0 0 0 0 0 0 0
0 0 0 0 0 0 0 0 0 0 0 0 0 0 0 0 0 0 1 1 1 1 1 1 1 1 1 1 1 1 1 1 1 1 0 0 0 0 0 0 0 0 0 0
0 0 0 0 0 0 0 0 0 0 0 0 0 0 0 0 0 1 1 1 1 1 1 1 1 1 1 1 1 1 1 1 1 0 0 0 0 0 0 0 0 0 0 0
0 0 0 0 0 0 0 0 0 0 0 0 0 0 0 0 0 1 1 1 1 1 1 1 1 1 1 1 1 1 1 1 0 0 0 0 0 0 0 0 0 0 0 0
0 0 0 0 0 0 0 0 0 0 0 0 0 0 0 0 0 1 1 1 1 1 1 1 1 1 1 1 1 1 1 1 1 0 0 0 0 0 0 0 0 0 0 0
0 0 0 0 0 0 0 0 0 0 0 0 0 0 0 0 0 1 1 1 1 1 1 1 1 1 1 1 1 1 1 1 1 0 0 0 0 0 0 0 0 0 0 0
0 0 0 0 0 0 0 0 0 0 0 0 0 0 0 0 0 1 1 1 1 1 1 1 1 1 1 1 1 1 1 1 0 0 0 0 0 0 0 0 0 0 0 0
0 0 0 0 0 0 0 0 0 0 0 0 0 0 0 0 0 0 1 1 1 1 1 1 1 1 1 1 1 1 1 1 0 0 0 0 0 0 0 0 0 0 0 0
0 0 0 0 0 0 0 0 0 0 0 0 0 0 0 0 0 1 1 1 1 1 1 1 1 1 1 1 1 1 1 1 0 0 0 0 0 0 0 0 0 0 0 0
0 0 0 0 0 0 0 0 0 0 0 0 0 0 0 0 0 1 1 2 2 2 1 1 1 1 1 1 1 1 1 1 1 1 1 0 0 0 0 0 0 0 0 0
0 0 0 0 0 0 0 0 0 0 0 0 0 0 0 0 1 1 1 2 2 2 1 1 1 1 1 1 1 1 1 1 1 1 1 1 1 1 1 0 0 0 0 0
0 0 0 0 0 0 0 0 0 0 0 0 0 0 1 1 1 2 2 2 2 2 2 1 1 1 1 1 1 1 1 1 1 1 1 1 1 1 1 1 0 0 0 0
0 0 0 0 0 0 0 0 0 0 0 0 0 1 1 2 2 2 2 2 2 2 2 2 2 2 2 2 2 1 1 1 1 1 1 1 1 1 1 1 0 0 0 0
0 0 0 0 0 0 0 0 0 0 0 1 1 1 2 2 2 3 3 3 3 3 3 3 2 2 2 2 2 1 1 1 1 1 1 1 1 1 1 1 0 0 0 0
0 0 0 0 0 0 0 0 0 0 1 1 1 2 2 2 3 3 3 3 3 3 3 3 3 3 2 2 2 1 1 1 1 1 1 1 1 1 1 1 0 0 0 0
0 0 0 0 0 0 0 0 0 1 1 1 2 2 3 3 3 3 4 4 3 3 3 3 3 3 2 2 2 2 1 1 1 1 1 1 1 1 1 1 0 0 0 0
0 0 0 0 0 0 0 0 1 1 1 1 2 2 3 4 3 3 3 3 3 3 3 3 3 3 2 2 2 2 1 1 1 1 1 1 1 1 1 1 0 0 0 0
0 0 0 0 0 0 0 1 1 1 1 1 2 2 3 3 3 3 2 2 2 2 2 2 2 2 2 2 1 1 1 1 1 1 1 1 1 1 0 0 0 0 0 0
0 0 0 0 0 0 1 1 1 1 1 1 1 2 2 2 2 2 2 2 2 2 2 2 2 2 1 1 1 1 1 1 1 1 1 1 0 0 0 0 0 0 0 0
0 0 0 0 0 0 0 1 1 1 1 1 1 1 1 2 2 2 2 1 1 1 1 1 1 1 1 1 1 1 1 1 1 1 1 0 0 0 0 0 0 0 0 0
Wind_Speed
1 2 4 8 7 8 5 3 2 3 2 4 4 6 10 11 11 11 11 11 11 11 9 9 10 11 10 9 9 9 8 8 6 4 3 3 2 2 2 2 4 5 5 5
4 5 11 8 7 4 2 1 3 2 1 2 2 2 6 10 14 15 15 13 13 10 9 9 9 10 10 10 9 9 9 8 7 5 4 3 3 2 2 2 3 5 5 5
6 9 6 5 5 3 3 1 2 1 4 5 5 4 1 4 5 9 11 12 12 14 13 11 11 10 9 10 10 9 9 8 7 6 3 2 2 1 0 2 2 4 5 5
7 9 7 5 4 1 3 3 1 2 4 2 3 0 5 3 5 8 10 10 11 12 11 10 10 10 10 10 9 9 9 8 7 6 5 6 4 4 4 3 3 3 5 5
6 4 3 4 5 2 4 1 2 2 3 3 2 3 6 1 5 8 10 11 11 12 12 12 12 11 9 9 9 8 8 8 8 7 7 6 4 3 2 2 3 3 4 5
8 6 4 6 5 3 1 6 9 7 6 2 3 3 5 5 9 8 10 11 12 12 11 11 10 8 7 8 8 8 8 8 8 8 7 7 6 5 4 3 3 3 3 3
6 8 5 3 1 3 6 8 6 6 5 5 3 2 8 9 8 12 13 13 12 10 10 10 10 10 9 9 9 8 8 7 7 7 7 7 6 6 5 4 4 4 3 3
3 8 6 3 6 5 4 11 8 4 4 6 5 2 7 5 6 9 11 11 11 10 9 10 11 10 10 10 10 9 9 7 7 7 6 5 5 4 4 4 4 4 4 4
7 8 7 5 6 9 5 5 9 8 1 2 4 3 5 2 5 8 10 10 11 11 10 10 10 10 9 9 9 10 9 7 7 7 6 5 5 5 5 4 4 3 4 4
8 5 7 6 2 4 8 8 7 5 3 1 5 3 4 5 6 7 9 11 10 9 8 9 9 9 9 8 8 8 8 8 7 6 6 5 5 5 4 4 4 4 4 4
9 6 7 4 4 8 4 4 6 5 6 6 2 7 7 10 9 10 11 12 13 12 11 9 8 8 8 7 8 8 7 7 6 6 5 5 4 4 4 4 4 4 3 4
9 8 6 8 7 7 8 9 9 6 4 6 4 9 6 7 8 10 11 11 12 12 10 9 8 8 8 8 8 8 8 7 7 6 5 5 4 4 3 3 3 3 3 3
9 8 3 7 7 2 3 5 7 7 6 5 4 7 4 2 4 7 9 9 10 9 8 7 7 7 8 9 8 8 8 8 7 6 6 5 4 4 4 4 3 3 3 3
9 7 9 12 9 4 2 3 4 7 5 5 7 8 5 3 6 6 8 9 10 10 10 9 7 7 8 8 8 8 7 7 7 7 6 5 5 5 4 4 3 3 3 2
6 5 5 6 6 4 2 3 3 5 9 9 9 10 10 10 11 11 11 10 10 10 9 10 9 8 7 7 7 7 7 7 7 7 6 6 5 4 4 3 3 3 2 3
5 4 3 1 1 2 1 3 4 4 4 6 6 7 9 7 6 9 11 12 11 11 11 11 10 9 9 9 8 7 7 7 7 7 7 6 5 4 4 4 3 2 2 1
3 4 4 1 1 4 3 4 3 4 4 5 8 9 5 5 8 12 13 13 12 11 9 9 10 10 9 8 8 8 8 6 7 7 6 5 5 5 5 4 3 3 2 2
4 4 4 3 3 4 9 4 2 2 4 3 4 5 8 9 7 6 9 12 11 10 9 8 8 7 6 6 6 6 7 7 7 6 5 5 5 5 4 4 4 3 2 2
5 6 4 4 3 5 7 4 1 1 4 5 1 4 6 8 9 4 1 7 9 10 9 7 7 6 6 7 7 8 6 6 6 6 5 5 6 5 5 5 4 2 2 2
5 6 6 4 4 5 7 5 2 3 2 6 1 5 7 7 6 3 2 4 6 7 7 6 7 6 6 6 7 8 7 6 6 6 5 5 5 6 5 5 4 3 2 2
3 4 3 3 3 6 7 6 4 3 5 4 1 4 6 5 5 5 5 5 6 7 6 7 8 7 5 6 7 6 6 6 5 5 4 4 4 5 5 4 3 3 2 3
4 3 4 4 3 8 6 3 1 5 3 1 3 4 7 8 8 7 7 7 7 7 7 7 7 6 4 5 6 6 4 4 4 4 4 4 4 4 4 4 3 3 3 3
3 7 6 7 7 5 3 1 1 3 3 2 4 5 9 10 7 7 6 6 6 6 6 6 7 6 4 3 5 5 2 3 4 5 4 4 3 3 3 4 3 2 2 2
4 2 2 1 1 2 3 4 4 3 4 4 5 6 8 9 7 7 6 5 5 5 6 5 6 7 4 3 4 3 2 3 5 4 3 3 3 3 3 2 2 2 2 2
4 3 3 1 2 4 6 5 3 4 5 7 6 6 6 8 7 6 5 5 5 5 4 5 5 5 4 3 4 4 3 4 4 4 3 3 3 4 4 3 3 1 1 1
2 1 1 1 3 1 2 3 4 5 5 5 7 6 6 6 6 6 6 5 5 5 5 5 5 5 4 4 5 4 4 4 4 3 2 2 2 3 3 3 3 6 4 4
Wind_Direction
318 69 247 241 226 219 246 279 298 264 209 123 152 157 170 172 172 172 174 175 177 182 178 166 164 165 162 162 163 162 161 169 161 156 159 159 175 183 184 193 189 184 181 177
8 272 245 247 259 254 264 335 331 320 317 99 134 145 178 175 182 179 177 178 176 170 165 166 166 168 170 171 168 167 167 175 174 171 164 161 164 185 194 203 197 193 187 187
220 246 262 255 274 294 315 273 263 267 8 39 76 10 241 203 186 180 179 176 172 172 173 173 173 177 175 175 175 176 174 175 176 164 145 137 124 104 181 212 216 210 194 194
248 253 265 262 262 208 290 282 73 73 67 313 103 150 276 218 182 179 178 176 177 178 175 175 180 180 182 181 175 171 173 173 174 168 167 170 180 197 206 198 212 223 208 201
261 268 263 243 238 206 229 284 24 40 85 21 15 126 274 212 189 192 183 180 181 179 176 179 186 184 182 176 172 172 172 176 177 179 181 181 190 200 195 189 211 228 226 212
256 272 241 225 237 215 141 39 23 38 59 353 263 150 257 226 201 187 183 182 182 178 177 178 181 173 173 170 170 172 174 183 183 182 183 184 189 192 188 197 209 223 226 222
302 300 281 240 236 347 79 75 27 1 11 262 279 162 242 236 200 180 177 179 178 172 169 168 169 172 172 172 174 175 174 182 182 182 187 190 191 189 196 201 207 210 216 219
226 280 267 222 175 179 157 132 151 188 222 283 332 238 259 240 193 165 161 162 161 166 171 171 172 172 174 176 174 174 177 181 179 182 188 189 187 188 201 204 202 208 215 217
194 249 274 247 194 155 154 171 168 141 194 316 299 297 317 59 127 140 148 149 161 169 173 173 171 169 171 174 176 175 176 177 181 184 182 186 190 194 203 209 209 215 220 219
173 241 281 280 194 183 164 155 98 110 141 268 302 277 226 202 166 151 155 162 164 164 169 170 169 171 173 176 174 170 173 177 178 180 183 187 194 200 204 202 210 218 224 223
175 200 284 336 194 200 179 148 120 127 150 150 238 272 232 197 179 166 171 171 167 169 175 174 172 171 167 166 165 167 170 169 173 181 185 185 192 199 199 202 213 217 221 210
180 163 237 254 251 200 178 177 148 153 207 162 167 265 273 195 177 165 170 172 171 172 169 166 165 161 160 164 168 171 172 172 178 180 181 187 187 185 191 208 215 209 210 209
162 145 192 314 326 341 189 183 161 141 132 154 165 260 298 147 163 160 161 167 168 167 162 159 155 162 166 169 172 174 175 177 177 174 177 184 184 185 196 206 204 199 199 201
136 134 171 199 208 203 225 235 166 133 158 202 207 228 261 197 171 169 166 167 166 167 164 162 165 169 171 173 174 174 177 176 174 173 176 183 189 192 196 197 194 195 195 195
111 142 170 191 192 170 197 258 236 190 188 186 212 207 222 207 186 176 170 165 161 163 165 169 171 170 169 171 174 174 174 174 172 172 178 187 189 188 185 186 191 194 199 209
58 117 115 103 109 85 343 298 295 262 219 202 197 230 228 204 170 164 167 162 163 168 174 177 175 172 174 176 176 175 176 175 169 172 181 181 177 177 179 181 178 175 183 179
37 98 99 199 11 49 289 250 253 272 258 194 208 227 202 167 170 173 171 166 166 166 167 175 177 179 180 177 171 174 173 163 161 168 175 177 173 176 181 173 160 166 181 159
108 90 116 124 86 221 241 246 226 247 287 264 215 206 175 172 171 164 165 160 159 161 165 176 176 174 168 160 157 157 151 152 160 167 171 175 171 173 171 162 165 176 167 154
128 124 108 116 161 270 295 304 323 225 306 317 210 153 148 130 92 59 140 153 158 162 163 168 169 162 154 152 149 140 143 148 152 162 171 175 169 167 163 162 168 168 158 156
75 93 106 118 151 218 251 282 305 92 329 319 104 145 145 122 119 201 196 140 136 137 142 142 137 127 131 141 140 141 151 156 168 177 178 173 169 167 169 169 169 165 163 165
49 55 113 146 194 254 261 296 28 105 232 293 106 145 138 134 158 155 129 117 117 113 112 116 118 122 133 136 134 141 151 172 182 170 161 158 162 165 165 162 162 157 157 151
170 161 183 154 188 252 287 355 106 204 223 5 84 107 103 99 101 110 113 109 112 112 109 110 114 114 113 121 129 138 160 173 147 140 145 151 153 161 157 149 154 155 156 159
185 189 188 183 206 241 302 121 174 153 120 87 89 95 111 109 112 112 108 105 108 113 109 105 108 102 90 98 117 128 154 145 133 136 147 150 145 146 145 151 157 157 164 177
309 331 134 142 294 312 9 52 43 70 105 97 99 105 106 107 112 104 102 104 102 99 101 102 104 104 96 83 89 103 102 125 130 134 140 141 139 129 109 111 131 152 174 189
303 358 40 46 312 353 7 17 39 54 78 87 82 87 102 106 109 113 112 109 108 105 100 105 109 108 103 93 81 69 71 93 106 114 119 124 125 126 113 90 60 83 103 196
316 42 110 233 274 193 302 334 39 61 65 95 96 80 80 95 117 116 112 106 104 105 104 103 100 96 84 74 68 57 60 83 103 107 111 120 121 122 123 120 83 44 50 39